Waarnemingen

Advertentie
Mijn weer
Florennes, België (6456): temperatuur & dauwpunt: 05.12.2017 06:00:00 - 11.12.2017 06:00:00 (CET)Florennes, België (6456): windsnelheid & windstoten: 05.12.2017 06:00:00 - 11.12.2017 06:00:00 (CET)Florennes, België (6456): windrichting: 05.12.2017 06:00:00 - 11.12.2017 06:00:00 (CET)Florennes, België (6456): luchtdruk: 05.12.2017 06:00:00 - 11.12.2017 06:00:00 (CET)Florennes, België (6456): zicht: 05.12.2017 06:00:00 - 11.12.2017 06:00:00 (CET)
Datum & Tijd tt [°C] td [°C] ff [km/u] ff [kn] fx [km/u] fx [kn] dd ppp [hPa] vv [km]
11.12.2017 06:00:00 3,7 2,7 14 8 18 10 O 980,3 10
11.12.2017 05:00:00 3,2 2,3 11 6 14 8 O 981,7 18
11.12.2017 04:00:00 3,5 2,6 7 4 - - ZO 983,1 19
11.12.2017 03:00:00 3,5 2,4 7 4 14 8 Z 984,6 19
11.12.2017 02:00:00 3,2 1,9 4 2 14 8 N 983,2 14
11.12.2017 01:00:00 4,4 2,7 8 4 - - ZZW 984,6 10
11.12.2017 00:00:00 4,7 2,6 14 8 32 18 ZW 984,1 14
10.12.2017 23:00:00 4,9 2,3 22 12 40 21 WZW 982,8 20
10.12.2017 22:00:00 5,4 2,0 32 18 - - WZW 982,1 20
10.12.2017 21:00:00 5,5 2,2 32 18 65 35 ZW 981,2 20
10.12.2017 20:00:00 5,6 2,5 36 19 61 33 ZW 980,0 20
10.12.2017 19:00:00 5,5 2,6 39 21 - - ZW 979,3 10
10.12.2017 18:00:00 5,2 2,7 36 19 54 29 ZW 978,7 12
10.12.2017 17:00:00 5,6 1,9 32 18 61 33 ZZW 978,5 15
10.12.2017 16:00:00 5,8 1,4 32 18 - - ZZW 978,6 15
10.12.2017 15:00:00 5,0 2,0 36 19 58 31 ZW 978,5 17
10.12.2017 14:00:00 3,9 2,2 32 18 58 31 ZW 979,1 10
10.12.2017 13:00:00 1,7 0,6 29 16 - - Z 979,6 12
10.12.2017 12:00:00 0,3 -0,9 29 16 54 29 Z 980,8 4,5
10.12.2017 11:00:00 -0,4 -1,3 36 19 54 29 ZZO 982,4 0,9
10.12.2017 10:00:00 -0,6 -1,5 32 18 - - ZZO 986,2 1,2
10.12.2017 09:00:00 -0,5 -1,5 25 14 40 21 ZZO 990,0 1,7
10.12.2017 08:00:00 -0,2 -1,3 25 14 36 19 ZZO 993,4 3,5
10.12.2017 07:00:00 0,0 -1,1 25 14 - - Z 996,4 8
10.12.2017 06:00:00 0,0 -1,1 22 12 36 19 Z 999,3 18
10.12.2017 05:00:00 0,0 -1,1 22 12 36 19 Z 1001,7 14
10.12.2017 04:00:00 0,2 -1,1 22 12 - - Z 1004,0 15
10.12.2017 03:00:00 0,4 -1,2 22 12 32 18 ZZW 1005,6 16
10.12.2017 02:00:00 0,2 -1,4 18 10 32 18 Z 1007,1 16
10.12.2017 01:00:00 0,1 -1,3 18 10 - - Z 1008,2 12
10.12.2017 00:00:00 0,1 -1,4 22 12 36 19 ZZW 1009,8 12
09.12.2017 23:00:00 0,1 -1,7 18 10 32 18 ZZW 1011,1 11
09.12.2017 22:00:00 -0,1 -1,4 18 10 - - ZZW 1012,1 6
09.12.2017 21:00:00 0,2 -2,2 14 8 25 14 ZZW 1013,2 20
09.12.2017 20:00:00 0,1 -2,1 18 10 29 16 ZZW 1014,0 19
09.12.2017 19:00:00 -0,2 -2,2 18 10 - - ZZW 1014,5 20
09.12.2017 18:00:00 -0,2 -2,6 14 8 29 16 ZZW 1015,2 20
09.12.2017 17:00:00 0,0 -2,7 18 10 29 16 ZW 1015,6 20
09.12.2017 16:00:00 0,5 -3,6 22 12 - - ZW 1015,7 20
09.12.2017 15:00:00 0,6 -3,6 18 10 29 16 ZW 1016,2 20
09.12.2017 14:00:00 0,8 -4,1 18 10 32 18 WZW 1016,8 20
09.12.2017 13:00:00 0,9 -3,1 22 12 - - WZW 1017,3 20
09.12.2017 12:00:00 -0,1 -3,1 22 12 32 18 WZW 1017,7 19
09.12.2017 11:00:00 -0,7 -3,2 22 12 32 18 WZW 1018,2 20
09.12.2017 10:00:00 -1,6 -3,5 22 12 - - WZW 1018,0 19
09.12.2017 09:00:00 -2,0 -3,8 18 10 29 16 WZW 1017,7 19
09.12.2017 08:00:00 -2,0 -3,9 18 10 29 16 WZW 1017,6 18
09.12.2017 07:00:00 -1,6 -3,6 18 10 - - WZW 1017,5 20
09.12.2017 06:00:00 -1,9 -3,8 14 8 25 14 WZW 1017,2 20
09.12.2017 05:00:00 -1,7 -3,8 14 8 22 12 WZW 1017,2 20
09.12.2017 04:00:00 -1,4 -3,6 18 10 - - WZW 1017,2 19
09.12.2017 03:00:00 -1,2 -3,7 18 10 25 14 W 1017,2 20
09.12.2017 02:00:00 -0,9 -3,9 18 10 25 14 W 1016,7 20
09.12.2017 01:00:00 -1,0 -3,8 18 10 - - W 1017,0 20
09.12.2017 00:00:00 -1,0 -4,1 14 8 29 16 WZW 1016,7 20
08.12.2017 23:00:00 -0,7 -4,0 18 10 32 18 W 1016,5 20
08.12.2017 22:00:00 0,0 -4,0 22 12 - - W 1016,3 20
08.12.2017 21:00:00 0,1 -3,9 22 12 32 18 W 1016,1 20
08.12.2017 20:00:00 0,0 -3,9 18 10 29 16 W 1016,0 20
08.12.2017 19:00:00 0,3 -3,7 22 12 - - W 1015,5 20
08.12.2017 18:00:00 0,6 -3,3 22 12 32 18 W 1015,1 20
08.12.2017 17:00:00 1,2 -3,1 18 10 29 16 W 1014,8 20
08.12.2017 16:00:00 1,4 -1,2 18 10 - - W 1014,1 20
08.12.2017 15:00:00 2,5 -2,7 22 12 43 23 W 1013,7 20
08.12.2017 14:00:00 2,2 -1,3 25 14 40 21 W 1013,3 20
08.12.2017 13:00:00 1,6 -1,3 29 16 - - W 1013,3 20
08.12.2017 12:00:00 1,7 -1,6 29 16 43 23 WZW 1013,1 20
08.12.2017 11:00:00 1,3 -1,4 25 14 40 21 WZW 1013,2 20
08.12.2017 10:00:00 0,5 -1,6 18 10 - - WZW 1012,8 20
08.12.2017 09:00:00 1,0 -0,9 - - 32 18 WZW 1012,5 6
08.12.2017 08:00:00 1,1 -1,1 14 8 22 12 WZW 1012,2 20
08.12.2017 07:00:00 0,8 -1,0 14 8 - - WZW 1012,3 20
08.12.2017 06:00:00 1,3 -0,3 14 8 25 14 WZW 1012,5 20
08.12.2017 05:00:00 2,2 0,0 18 10 25 14 W 1012,8 10
08.12.2017 04:00:00 2,2 0,2 14 8 - - WZW 1012,8 18
08.12.2017 03:00:00 2,7 0,8 14 8 22 12 WZW 1012,7 16
08.12.2017 02:00:00 3,4 1,5 14 8 25 14 WZW 1012,2 15
08.12.2017 01:00:00 4,3 2,4 18 10 - - WZW 1012,0 16
08.12.2017 00:00:00 4,5 2,9 18 10 29 16 W 1011,7 11
07.12.2017 23:00:00 4,6 3,5 18 10 22 12 W 1011,2 13
07.12.2017 22:00:00 5,0 3,4 14 8 - - WNW 1010,5 18
07.12.2017 21:00:00 6,0 5,1 25 14 50 27 ZW 1009,2 5
07.12.2017 20:00:00 5,4 4,4 29 16 50 27 ZZW 1009,2 2,2
07.12.2017 19:00:00 4,6 3,5 32 18 - - ZZW 1009,8 8
07.12.2017 18:00:00 4,1 3,0 32 18 58 31 Z 1010,8 2,4
07.12.2017 17:00:00 3,9 2,8 32 18 58 31 Z 1011,7 3,8
07.12.2017 16:00:00 3,4 2,2 36 19 - - Z 1013,0 5
07.12.2017 15:00:00 3,2 2,0 36 19 61 33 Z 1013,7 3,0
07.12.2017 14:00:00 3,0 1,6 36 19 54 29 Z 1015,2 7
07.12.2017 13:00:00 2,9 1,4 32 18 - - Z 1016,7 6
07.12.2017 12:00:00 2,4 0,9 29 16 50 27 Z 1018,0 6
07.12.2017 11:00:00 2,0 0,1 22 12 47 25 Z 1019,6 8
07.12.2017 10:00:00 1,6 -0,5 25 14 - - Z 1020,0 10
07.12.2017 09:00:00 1,1 -0,9 22 12 36 19 Z - 9
07.12.2017 08:00:00 0,6 -1,2 29 16 43 23 Z 1021,6 8
07.12.2017 07:00:00 0,5 -0,9 25 14 - - ZZW 1022,6 6
07.12.2017 06:00:00 0,4 -0,9 22 12 43 23 ZZW 1023,2 6
07.12.2017 05:00:00 0,6 -0,7 25 14 40 21 ZZW 1023,8 7
07.12.2017 04:00:00 0,8 -0,5 25 14 - - ZZW 1024,5 6
07.12.2017 03:00:00 1,7 -0,4 25 14 47 25 ZZW 1025,2 12
07.12.2017 02:00:00 2,4 -0,1 22 12 40 21 ZZW 1025,7 17
07.12.2017 01:00:00 2,9 0,1 18 10 - - ZZW 1026,2 14
07.12.2017 00:00:00 3,3 0,1 11 6 22 12 ZZW 1027,0 19
06.12.2017 23:00:00 3,7 0,8 14 8 25 14 ZZW 1027,7 14
06.12.2017 22:00:00 4,0 1,3 11 6 - - ZZW 1028,5 13
06.12.2017 21:00:00 4,1 1,9 11 6 18 10 Z 1029,2 10
06.12.2017 20:00:00 4,3 2,5 11 6 18 10 ZZW 1030,0 6
06.12.2017 19:00:00 4,5 2,6 11 6 - - Z 1030,4 7
06.12.2017 18:00:00 4,7 2,6 14 8 22 12 Z 1030,7 8
06.12.2017 17:00:00 5,0 2,7 14 8 25 14 Z 1031,2 10
06.12.2017 16:00:00 5,3 2,6 14 8 - - ZZW 1031,2 12
06.12.2017 15:00:00 5,5 2,5 14 8 18 10 ZZW 1031,5 12
06.12.2017 14:00:00 5,6 2,6 11 6 22 12 ZW 1032,2 12
06.12.2017 13:00:00 5,5 2,6 11 6 - - ZW 1032,7 10
06.12.2017 12:00:00 5,3 2,4 11 6 22 12 ZW 1033,2 10
06.12.2017 11:00:00 5,0 2,5 7 4 14 8 WZW 1033,7 10
06.12.2017 10:00:00 4,5 2,4 11 6 - - ZZW 1033,7 10
06.12.2017 09:00:00 4,4 2,4 18 10 22 12 ZZW 1034,0 6
06.12.2017 08:00:00 4,3 2,8 7 4 14 8 ZW 1034,0 6
06.12.2017 07:00:00 4,3 3,0 7 4 - - ZW 1034,2 6
06.12.2017 06:00:00 4,3 3,0 4 2 11 6 N 1034,4 6
06.12.2017 05:00:00 4,1 3,2 7 4 14 8 ZZW 1034,7 4,1
06.12.2017 04:00:00 4,3 3,0 7 4 - - ZZW 1035,0 5
06.12.2017 03:00:00 4,3 3,0 11 6 18 10 ZW 1035,5 5
06.12.2017 02:00:00 4,1 2,8 7 4 18 10 ZW 1035,4 5
06.12.2017 01:00:00 4,0 2,8 11 6 - - ZW 1035,7 4,2
06.12.2017 00:00:00 3,9 2,8 11 6 22 12 ZW 1035,9 3,1
05.12.2017 23:00:00 3,7 2,7 11 6 18 10 ZW 1036,2 3,1
05.12.2017 22:00:00 3,5 2,5 11 6 - - ZW 1036,5 3,7
05.12.2017 21:00:00 3,7 2,1 11 6 18 10 ZW 1036,5 4,5
05.12.2017 20:00:00 3,7 2,1 7 4 11 6 ZW 1036,5 4,5
05.12.2017 19:00:00 3,7 2,1 4 2 - - N 1036,7 4,5
05.12.2017 18:00:00 3,9 2,5 7 4 14 8 ZZW 1036,7 4,0
05.12.2017 17:00:00 4,1 2,8 7 4 14 8 Z 1036,7 4,0
05.12.2017 16:00:00 4,5 3,0 7 4 - - ZW 1036,7 5
05.12.2017 15:00:00 4,9 3,3 7 4 14 8 ZW 1036,5 5
05.12.2017 14:00:00 4,8 3,4 7 4 14 8 ZW 1036,9 4,0
05.12.2017 13:00:00 4,6 3,3 11 6 - - ZW 1037,0 3,5
05.12.2017 12:00:00 4,0 3,0 11 6 18 10 ZW 1037,5 3,0
05.12.2017 11:00:00 3,5 2,5 7 4 14 8 ZW 1037,7 3,0
05.12.2017 10:00:00 3,2 2,3 7 4 - - WZW 1037,9 3,0
05.12.2017 09:00:00 2,7 1,8 7 4 14 8 WZW 1037,7 2,3
05.12.2017 08:00:00 2,5 1,5 7 4 14 8 ZW 1037,0 2,5
05.12.2017 07:00:00 2,4 1,3 11 6 - - WZW 1036,7 2,0
05.12.2017 06:00:00 2,2 1,3 14 8 18 10 ZW 1036,7 2,0

tt = temperatuur
td = dauwpunt
ff = windsnelheid
fx = windstoten
dd = windrichting
ppp = luchtdruk
vv = zicht

Weerstations in de omgeving

  • TOP-25 (most viewed):